Location: New Canada
(47.1017°N, 68.5042°W)
Time: 00:24:03
(UTC+00:00)

NOAA 18 - Visible Passes

Search period start: 19 April 2024 00:00
Search period end: 29 April 2024 00:00
Orbit: 839 x 858 km, 98.9° (Epoch: 18 April)

Date Brightness Start Highest point End Pass type
(mag) Time Alt. Az. Time Alt. Az. Time Alt. Az.
19 Apr 7.2 00:40:14 10° E 00:42:56 14° NE 00:45:39 10° NNE visible
19 Apr 5.1 02:21:51 63° SE 02:22:39 73° ENE 02:28:12 10° N visible
19 Apr 7.2 04:03:48 18° W 04:03:51 18° W 04:07:36 10° NW visible
20 Apr 7.3 00:29:07 10° ENE 00:30:42 11° NE 00:32:17 10° NNE visible
20 Apr 5.4 02:09:08 49° ESE 02:10:14 59° ENE 02:15:41 10° N visible
20 Apr 6.9 03:51:05 23° W 03:51:15 23° W 03:55:35 10° NW visible
21 Apr 5.7 01:56:26 39° ESE 01:57:49 47° ENE 02:03:07 10° N visible
21 Apr 6.5 03:38:23 29° W 03:38:39 29° W 03:43:25 10° NW visible
22 Apr 6.0 01:43:43 31° ESE 01:45:26 38° ENE 01:50:31 10° N visible
22 Apr 6.2 03:25:40 35° WSW 03:26:05 36° W 03:31:11 10° NNW visible
23 Apr 6.3 01:31:00 24° E 01:33:04 31° ENE 01:37:53 10° N visible
23 Apr 5.8 03:12:57 44° WSW 03:13:32 45° W 03:18:52 10° NNW visible
24 Apr 6.5 01:18:17 19° E 01:20:44 25° ENE 01:25:11 10° N visible
24 Apr 5.5 03:00:14 52° SW 03:01:01 57° W 03:06:29 10° NNW visible
25 Apr 6.8 01:05:34 14° E 01:08:25 21° ENE 01:12:26 10° NNE visible
25 Apr 5.3 02:47:31 58° SSW 02:48:31 72° WSW 02:54:04 10° NNW visible
25 Apr 7.6 04:29:28 10° W 04:30:07 11° W 04:31:14 10° WNW visible
26 Apr 7.0 00:52:52 11° E 00:56:07 17° NE 00:59:35 10° NNE visible
26 Apr 5.1 02:34:48 57° SSE 02:36:01 89° WSW 02:41:37 10° NNW visible
26 Apr 7.4 04:16:45 14° W 04:17:26 14° W 04:20:14 10° WNW visible
27 Apr 7.2 00:41:05 10° E 00:43:50 14° NE 00:46:36 10° NNE visible
27 Apr 5.2 02:22:06 50° SE 02:23:34 74° ENE 02:29:07 10° NNW visible
27 Apr 7.1 04:04:02 17° W 04:04:47 18° W 04:08:28 10° NW visible
28 Apr 7.3 00:29:56 10° ENE 00:31:35 11° NE 00:33:15 10° NNE visible
28 Apr 5.4 02:09:23 41° SE 02:11:08 59° ENE 02:16:35 10° N visible
28 Apr 6.8 03:51:20 22° WSW 03:52:10 23° W 03:56:27 10° NW visible
